FENGYUN 1C DEB, 30313

Orbit data source: Space-Track

FENGYUN 1C DEB, 30313 is space debris in SSO originally from a launch on Mon, 10 May 1999 UTC launched from the Taiyaun Space Center, China (TSC). Fengyun 1C debris stems from the Chinese weather satellite Fengyun-1C, which was intentionally destroyed by a Chinese anti-satellite missile in 2007. This event dramatically increased the amount of space debris, with thousands of trackable fragments posing hazards to satellites and human spaceflight. The Fengyun 1C debris cloud has become a focal point in discussions about space sustainability and the need for international regulations to prevent the creation of new debris.

Loading next visibility...
Identifier
30313, 1999-025AAA
Orbit
SSO
Country
Flag of CNCN / PRC
Related business
Manufacturer
Unknown
Mission
Spacecraft
Bus & Motor
Unknown
Mass
Unknown
Launch date (UTC)
1999-05-10 (27 years ago)
Launch vehicle
Unknown
Launch site
Taiyaun Space Center, China (TSC)
Object type
Payload
Rocket body
Debris
Shape & HBR
Unknown shape, 0.1 m
Radar Cross Section
Medium (>0.1 m² and <1 m²)

Expand to show TLE details & history
Last TLE update: 8 hours ago

TLE from 8 hours ago
0 FENGYUN 1C DEB
1 30313U 99025AAA 26208.25723927  .00003450  00000-0  14037-2 0  9999
2 30313  98.8706 302.3759 0056149  42.7424 341.1593 14.27320218  3152
Epoch: 2026-07-27T06:10Z
TLE epoch observation values (Epoch: 2026-07-27T06:10:25.472Z)
Latitude
23.41414°
Longitude
-99.02811°
Altitude
765.408 km
Speed
7.493 km/s
True Right ascension
19h 54m 05s
True Declination
23° 17' 21"
Sunlit
Object was in full shadow at epoch
Visualization orbit readout
Latitude
Unknown
Longitude
Unknown
Altitude
Unknown
Speed
Unknown
Apparent Right ascension
Unknown
Apparent Declination
Unknown
Sunlit
N/A
Visualization observer readout
Local Sidereal Time
03:42:10
Azimuth
Unknown
Elevation
Unknown
Doppler factor
Unknown
Orbital elements
Apogee altitude
838.151 km
Perigee altitude
757.566 km
Semi-major axis
7,175.996 km
Eccentricity
0.00561
Inclination
98.8706°
RAAN
302.3759°
Arg. of periapsis
42.7424°
True anomaly
340.95013°
Mean anomaly
341.1593°
Eccentric anomaly
341.05485°
Mean motion
3.57042 °/min
Orbital period
100.83 mins
BSTAR
0.0014037
Loading maneuver chart data...
Computing Atmospheric mass density...
Loading historical data...
Loading historical data...
Loading historical data...
Loading historical data...
Loading historical data...
Loading historical data...
Loading historical data...

Documentation

Showing up to 5 results
|